Regional Weather Roundup
Issued by NWS

Home | Current Version | Previous Version | Text Only | Print | Product List | Glossary On
Versions: 1 2 3 4 5 6 7 8 9 10 11 12 13 14 15 16 17 18 19 20 21 22 23 24 25 26 27 28 29 30 31 32 33 34 35 36 37 38 39 40 41 42 43 44 45 46 47 48 49 50
750
ASUS46 KSEW 250910
RWRWA

WASHINGTON REGIONAL WEATHER ROUNDUP
NATIONAL WEATHER SERVICE SEATTLE WA
200 AM PDT SAT MAR 25 2017

NOTE:"FAIR" INDICATES FEW OR NO CLOUDS BELOW 12,000 FEET WITH NO
SIGNIFICANT WEATHER AND/OR OBSTRUCTIONS TO VISIBILITY.

WAZ507-509-555>559-251000-
SEATTLE, TACOMA, EVERETT, AND VICINITY

CITY           SKY/WX    TMP DP  RH WIND       PRES   REMARKS
EVERETT        PTCLDY    44  40  85 SE16      30.02R
BOEING FIELD   CLOUDY    45  44  97 SE8       30.05S
RENTON         MOCLDY    46  42  86 SE6       30.05S
SEATAC AIRPORT MOCLDY    45  40  82 S12       30.05R
JBLM-MCCHORD   CLOUDY    42  42  99 S6        30.06R
PUYALLUP         N/A     45  41  87 VRB5      30.06S
BREMERTON      CLOUDY    43  41  93 S8        30.06S
JBLM-FT LEWIS  CLOUDY    42  42  99 SE7       30.06R
TACOMA NARROWS CLOUDY    44  40  85 S12       30.06R
$$

WAZ001-503-506-510-514-515-251000-
NORTH INTERIOR

CITY           SKY/WX    TMP DP  RH WIND       PRES   REMARKS
BELLINGHAM     CLOUDY    47  40  76 SE15G25   29.97S
FRIDAY HARBOR  CLOUDY    45  41  86 E6        29.99R
EASTSOUND      PTCLDY    45  41  87 S8        29.96R
PORT ANGELES   LGT RAIN  42  40  92 W7        29.98R
EDIZ HOOK      CLOUDY    44  41  89 CALM      29.99R
PORT TOWNSEND  MOCLDY    43  39  87 SW7       29.99R
NAS WHIDBEY    CLOUDY    48  39  71 S17       30.02R
ARLINGTON      CLOUDY    46  36  66 SE16      30.04R
BURLINGTON     CLOUDY    46  39  76 SE10      30.00R
$$

WAZ020-022-039-040-504-511-512-251000-
SOUTHWEST INTERIOR

CITY           SKY/WX    TMP DP  RH WIND       PRES   REMARKS
SHELTON        RAIN      44  42  93 S9        30.02R FOG
OLYMPIA        CLOUDY    44  41  89 S9        30.06R
CHEHALIS       CLOUDY    45  41  87 S9        30.07R
KELSO          MOCLDY    45  42  89 SE5       30.11R
VANCOUVER      PTCLDY    46  43  89 S3        30.11R
SCAPPOOSE, OR  CLEAR     38  38 100 W3        30.10R
PORTLAND, OR   PTCLDY    45  41  86 SW7       30.12R
$$

WAZ021-516-517-251000-
WASHINGTON COAST

CITY           SKY/WX    TMP DP  RH WIND       PRES   REMARKS
FORKS          LGT RAIN  44  41  89 W9        30.00R
HOQUIAM        LGT RAIN  45  42  89 SW10G25   30.04R FOG
ASTORIA, OR    CLOUDY    47  40  76 SW6       30.07R
$$

WAZ019-023-024-040-567>569-251000-
CASCADE MOUNTAINS AND COLUMBIA GORGE

CITY           SKY/WX    TMP DP  RH WIND       PRES   REMARKS
STAMPEDE PASS  NOT AVBL
TROUTDALE, OR  CLOUDY    47  44  90 CALM      30.12R
THE DALLES, OR CLOUDY    46  42  86 CALM      30.08R
$$

WAZ026-027-041>044-520-521-251000-
EAST SLOPES

CITY           SKY/WX    TMP DP  RH WIND       PRES   REMARKS
OMAK           MOCLDY    40  35  83 SE3       29.95R
WENATCHEE      PTCLDY    37  36  96 NE3       29.97R
ELLENSBURG     MOCLDY    40  34  79 W7        29.99R
YAKIMA         CLEAR     42  34  73 NE5       30.01R
SUNNYSIDE ARPT   N/A     44  35  68 SW5       30.03S
$$

WAZ028-034-035-251000-
COLUMBIA BASIN

CITY           SKY/WX    TMP DP  RH WIND       PRES   REMARKS
EPHRATA        CLEAR     39  33  79 SW9       29.96S
MOSES LAKE     PTCLDY    42  35  76 W6        29.99R
PASCO          PTCLDY    46  39  76 S7        30.06R
HERMISTON, OR  CLEAR     40  38  93 S5        30.06R
$$

WAZ036>038-251000-
NORTHEAST WASHINGTON

CITY           SKY/WX    TMP DP  RH WIND       PRES   REMARKS
SPOKANE GEIGER MOCLDY    38  36  92 S7        29.99S
SPOKANE FELTS  NOT AVBL
FAIRCHILD AFB  MOCLDY    38  38 100 S7        29.98S
COEURDALENE,ID MOCLDY    41  38  89 S7        30.02R
DEER PARK      MOCLDY    39  37  92 SE7       30.01R
$$

WAZ029>033-251000-
SOUTHEAST WASHINGTON

CITY           SKY/WX    TMP DP  RH WIND       PRES   REMARKS
PULLMAN        PTCLDY    38  33  82 CALM      30.05R
LEWISTON, ID   CLOUDY    43  39  86 SE3       30.06R
WALLA WALLA    CLOUDY    47  39  74 S10       30.06R
PENDLETON, OR  CLOUDY    40  35  83 E3        30.06R
$$




USA.gov is the U.S. government's official web portal to all federal, state and local government web resources and services.